This is the latest recevied weather packets stored in our database for station/object KC5TIL. If no packets are shown the sender has not sent any weather packets the latest 10 day(s).
| Time | Temp. | Humidity | Pressure | Rain* | Wind** | Luminosity | Snow |
|---|---|---|---|---|---|---|---|
| 1778074591 | 12.22° C | 82% | 1015.8 hPa | 0 mm | - | 54 W/m² | - |
| 1778074288 | 12.22° C | 81% | 1015.8 hPa | 0 mm | - | 56 W/m² | - |
| 1778073986 | 12.22° C | 81% | 1015.6 hPa | 0 mm | - | 54 W/m² | - |
| 1778073682 | 12.78° C | 80% | 1015.4 hPa | 0 mm | - | 46 W/m² | - |
| 1778073380 | 12.78° C | 79% | 1015.6 hPa | 0 mm | - | 52 W/m² | - |
| 1778073076 | 12.78° C | 79% | 1015.3 hPa | 0 mm | - | 53 W/m² | - |
| 1778072773 | 12.78° C | 78% | 1015.3 hPa | 0 mm | - | 37 W/m² | - |
| 1778072471 | 12.78° C | 78% | 1015 hPa | 0 mm | - | 38 W/m² | - |
| 1778072169 | 12.78° C | 78% | 1014.9 hPa | 0 mm | - | 34 W/m² | - |
| 1778071866 | 12.78° C | 78% | 1015.2 hPa | 0 mm | - | 27 W/m² | - |
| 1778071564 | 12.78° C | 77% | 1014.9 hPa | 0 mm | - | 31 W/m² | - |
| 1778071261 | 12.78° C | 77% | 1015 hPa | 0 mm | - | 24 W/m² | - |
| 1778070959 | 12.78° C | 76% | 1014.8 hPa | 0 mm | - | 18 W/m² | - |
| 1778070657 | 13.33° C | 76% | 1014.9 hPa | 0 mm | - | 20 W/m² | - |
| 1778070353 | 13.33° C | 75% | 1014.7 hPa | 0 mm | - | 13 W/m² | - |
| 1778070052 | 13.33° C | 75% | 1014.6 hPa | 0 mm | - | 15 W/m² | - |
| 1778069749 | 13.33° C | 76% | 1014.4 hPa | 0 mm | - | 16 W/m² | - |
| 1778069445 | 13.33° C | 76% | 1014.4 hPa | 0 mm | - | 9 W/m² | - |
| 1778069143 | 13.33° C | 76% | 1014.2 hPa | 0 mm | - | 6 W/m² | - |
| 1778068840 | 13.33° C | 76% | 1014.6 hPa | 0 mm | - | 5 W/m² | - |
| 1778068538 | 13.89° C | 76% | 1014.3 hPa | 0 mm | - | 3 W/m² | - |
| 1778068236 | 13.89° C | 76% | 1014.5 hPa | 0 mm | - | 1 W/m² | - |
| 1778067933 | 13.89° C | 76% | 1014.4 hPa | 0 mm | - | 0 W/m² | - |
| 1778067632 | 13.89° C | 75% | 1014.2 hPa | 0 mm | - | 0 W/m² | - |
| 1778067329 | 13.89° C | 75% | 1014.1 hPa | 0 mm | - | 0 W/m² | - |
* Rain latest hour (hover to see other rain measurements)
** Current wind speed in m/s (hover to see current wind gust speed)